Location: NJAA Observatory
(40.6819°N, 74.8979°W)
Time: 08:49:36
(UTC-05:00)

Daily predictions for brighter satellites

Satellite Brightness Start Highest point End
(mag) Time Altitude Azimuth Time Altitude Azimuth Time Altitude Azimuth
DNEPR-1 R/B 3.5 18:06:41 10° NNW 18:10:56 65° NE 18:15:09 10° SE
Nadezhda 1 Rocket 3.9 18:07:42 10° N 18:13:48 77° E 18:19:52 10° SSE
deb Kosmos-1763 4.1 18:11:06 10° SSW 18:14:53 84° ESE 18:18:42 10° NNE
Cosmos 1536 4.5 18:16:51 10° ESE 18:19:00 14° E 18:21:07 10° NE
ALOS 3.1 18:15:47 10° SE 18:19:47 29° ENE 18:23:48 10° N
COSMOS 2428 4.1 18:16:11 10° N 18:20:05 18° NE 18:23:57 10° E
NOAA 12 4.1 18:18:13 10° SSE 18:23:28 65° ENE 18:28:45 10° N
Okean 1 3.4 18:20:15 10° N 18:24:15 57° E 18:28:15 10° SSE
FREGAT/IRIS 3.1 18:22:14 10° SE 18:25:08 38° ENE 18:28:02 10° N
Resurs 01 Rocket 2.7 18:22:27 10° ESE 18:26:01 25° ENE 18:29:36 10° NNE
Meteor 1-25 Rocket 4.3 18:21:03 10° S 18:26:38 84° W 18:32:22 10° N
H-2A R/B 4.1 18:24:48 10° ESE 18:27:23 18° ENE 18:30:00 10° NNE
GEOS 3 Rocket 4.1 18:25:08 10° NE 18:30:05 41° ESE 18:35:03 10° S
METEOR-M 4.1 18:25:10 10° SSE 18:30:28 73° ENE 18:35:49 10° N
Cosmos 2181 Rocket 4.3 18:24:44 10° N 18:30:43 45° ENE 18:36:45 10° SSE
Cosmos 1812 3.2 18:29:32 10° NNW 18:33:22 66° W 18:37:11 10° S
Cosmos 1300 Rocket 4.0 18:30:45 10° SSE 18:34:50 39° E 18:38:58 10° NNE
COSMO-SKYMED 1 3.7 18:33:19 10° N 18:37:30 47° WNW 18:41:39 10° SW
Cosmos 1461 3.0 18:33:44 10° NW 18:37:45 74° WSW 18:41:51 10° SSE
Cosmos 2292 Rocket 4.2 18:37:40 10° S 18:42:37 81° E 18:49:24 10° N
Cosmos 2219 4.1 18:38:02 10° SSE 18:42:42 26° ESE 18:47:21 10° NE
Cosmos 2360 Rocket 2.3 18:38:08 10° NNW 18:43:41 54° ENE 18:49:12 10° SE
Meteor 1-11 Rocket 4.0 18:38:15 10° SSE 18:43:46 49° E 18:49:25 10° NNE
Cosmos 2219 Rocket 3.7 18:42:09 10° N 18:45:37 16° NE 18:47:03 15° ENE
Resurs 1-3 4.3 18:42:23 10° SE 18:46:18 33° ENE 18:50:16 10° N
Cosmos 1633 2.6 18:42:48 10° S 18:46:24 58° E 18:50:03 10° NNE
Cosmos 1709 Rocket 3.9 18:41:34 10° S 18:47:47 77° E 18:53:58 10° N
Cosmos 1238 Rocket 2.1 18:47:47 10° N 18:50:43 51° E 18:53:36 10° SSE
Tiangong 2 2.1 18:49:37 10° W 18:52:32 40° SSW 18:54:30 17° SE
Helios 1A 4.0 18:54:34 23° E 18:55:38 26° ENE 18:59:06 10° NNE
Cosmos 1023 Rocket 4.4 18:51:33 10° S 18:56:34 66° ESE 19:01:40 10° NNE
Cosmos 1818 4.0 18:51:45 10° SW 18:57:09 65° NW 19:02:36 10° NNE
Cosmos 1741 Rocket 4.4 18:53:23 10° S 18:58:14 40° ESE 19:03:06 10° NE
Cosmos 1602 3.6 18:56:31 10° S 19:00:22 84° E 19:04:18 10° N
Okean 1 Rocket 3.0 19:03:07 10° S 19:07:34 69° E 19:12:02 10° NNE
SL-19 R/B 4.3 19:02:32 10° SSE 19:08:09 74° ENE 19:14:07 10° NNW
Cosmos 1833 4.3 19:03:07 10° SSW 19:08:50 81° WNW 19:14:31 10° NNE
Helios 1B rocket 3.0 19:13:07 35° ESE 19:13:07 35° ESE 19:16:29 10° SSE
Cosmos 1570 Rocket 4.1 19:07:45 10° N 19:12:52 53° ENE 19:16:01 22° SE
Cosmos 2333 Rocket 3.4 19:10:52 10° N 19:15:22 23° NE 19:15:33 23° NE
Cosmos 2285 Rocket 4.5 19:10:17 10° N 19:16:17 39° ENE 19:18:40 29° ESE
DELTA 2 R/B (1) 3.9 19:11:14 10° W 19:16:44 58° SSW 19:19:39 27° SE
SL-16 R/B 4.1 19:13:52 10° NW 19:18:45 30° WSW 19:23:37 10° SSW
Cosmos 1340 4.1 19:20:46 10° NNW 19:24:20 39° W 19:27:52 10° SSW
Cosmos 1140 Rocket 3.8 19:21:35 10° SSW 19:26:40 66° WNW 19:31:49 10° NNE
BREEZE-M DEB (TANK) 2.5 19:23:21 10° SW 19:26:44 55° SSW 19:26:44 55° SSW
Okean 1-7 Rocket 3.5 19:25:39 10° N 19:30:12 88° E 19:34:42 10° S
Cosmos 1025 Rocket 2.9 19:27:58 10° N 19:32:20 69° E 19:33:20 50° SE
Cosmos 614 Rocket 4.1 19:31:43 10° SSW 19:36:47 71° WNW 19:41:52 10° NNE
Meteor 1-5 Rocket 4.2 19:31:50 10° S 19:37:46 73° E 19:43:40 10° NNE
Spot 2 Rocket 3.9 19:33:15 10° S 19:38:15 63° WSW 19:43:18 10° NNW
Cosmos 2208 Rocket 3.9 19:33:02 10° NNW 19:38:32 82° ENE 19:41:02 33° SSE
Gbstr 26 Del rocket 2.7 19:36:41 10° WSW 19:40:27 69° NW 19:40:28 69° NNW
Genesis I 3.4 19:39:00 10° NNW 19:42:25 64° NNW 19:42:25 64° NNW
Abrixas rocket 4.5 19:43:55 10° SW 19:45:01 19° SSW 19:45:01 19° SSW
USA 229 DEB 3.8 19:40:40 10° NNW 19:47:45 62° NE 19:49:35 48° ESE
USA 229 3.8 19:40:47 10° NNW 19:47:51 61° NE 19:49:39 48° ESE
Cosmos 1850 Rocket 4.3 19:44:23 10° SSW 19:49:39 66° WNW 19:54:58 10° NNE
NOSS 0 Rocket 4.3 19:46:19 10° NNW 19:51:45 43° NE 19:51:45 43° NE
CZ-2D R/B 4.1 19:53:18 40° SW 19:54:07 48° W 19:57:49 10° NNW
Envisat 3.5 19:55:47 45° NNE 19:55:47 45° NNE 19:59:30 10° N
Cosmos 1536 4.2 19:51:20 10° SSW 19:55:04 38° WNW 19:58:49 10° N
Spot 1 4.4 19:56:30 57° WSW 19:56:47 59° WSW 20:00:51 10° NNW
ALOS 4.3 19:53:10 10° SSW 19:57:09 28° W 20:01:10 10° NW
Resurs 01 Rocket 3.5 19:58:31 10° SSW 20:02:22 29° W 20:06:14 10° NW
COSMOS 2428 2.8 19:59:16 10° NNW 20:04:57 73° WSW 20:06:12 54° S
Cosmos 1610 Rocket 4.4 20:00:39 10° S 20:06:53 87° W 20:13:06 10° N
Cosmos 2333 4.2 20:01:40 10° NNW 20:07:25 80° WSW 20:08:05 69° S
Cosmos 2237 Rocket 3.3 20:06:27 10° NNW 20:09:51 32° NNE 20:09:51 32° NNE
NOSS 3-1 (C) 4.3 20:13:21 10° NNW 20:20:19 50° NE 20:20:19 50° NE
Cosmos 2219 4.2 20:21:04 10° SW 20:26:33 45° WNW 20:30:55 16° N
Cosmos 2360 Rocket 4.5 20:23:08 10° NW 20:27:13 21° W 20:31:19 10° SSW
Cosmos 2219 Rocket 2.8 20:24:39 10° NNW 20:28:48 51° NNW 20:28:48 51° NNW
SL-16 R/B 4.3 20:39:23 10° N 20:40:46 17° N 20:40:46 17° N
Cosmos 2333 Rocket 3.7 20:54:22 10° NNW 20:57:35 33° NW 20:57:35 33° NW
